Location: New Canada
(47.1017°N, 68.5042°W)
Time: 03:49:14
(UTC+00:00)

FO-99 - Visible Passes

Search period start: 29 March 2023 00:00
Search period end: 08 April 2023 00:00
Orbit: 423 x 443 km, 97.1° (Epoch: 28 March)

Date Brightness Start Highest point End Pass type
(mag) Time Alt. Az. Time Alt. Az. Time Alt. Az.
30 Mar ? 00:36:35 10° WSW 00:37:43 11° W 00:38:52 10° WNW visible
30 Mar ? 23:54:13 10° SSW 23:57:16 33° W 00:00:21 10° NNW visible
02 Apr ? 00:06:22 10° SSW 00:09:08 24° W 00:11:54 10° NW visible
04 Apr ? 00:18:18 10° SW 00:20:38 18° W 00:22:58 10° NW visible
04 Apr ? 23:36:34 10° S 23:39:50 56° W 23:43:07 10° NNW visible
06 Apr ? 00:30:09 10° WSW 00:31:47 13° W 00:33:25 10° WNW visible
06 Apr ? 23:47:36 10° S 23:50:44 39° W 23:53:53 10° NNW visible
